Hermiston, OR

2:21 AM PDT on June 24, 2017 (GMT -0700)
Hermiston Municipal

Weather History for KHRI - October, 2012

Change the Weather History Date:

Monday, October 29, 2012

  Actual Average Record
Temperature  
Mean Temperature 61 °F 46 °F  
Max Temperature 72 °F 59 °F 76 °F (2003)
Min Temperature 51 °F 34 °F 11 °F (1971)
Degree Days  
Heating Degree Days 4    
Growing Degree Days 11 (Base 50)    
Moisture  
Dew Point 51 °F    
Average Humidity 84    
Maximum Humidity 100    
Minimum Humidity 45    
Precipitation  
Precipitation 0.03 in 0.03 in 0.94 in (1982)
Month to date precipitation 0.73  
Year to date precipitation 7.85  
Sea Level Pressure  
Sea Level Pressure 29.91 in    
Wind  
Wind Speed 4 mph (SSW)    
Max Wind Speed 20 mph    
Max Gust Speed 28 mph    
Visibility 6 miles    
Events Rain    
T = Trace of Precipitation, MM = Missing Value Source: NWS Daily Summary

Daily Weather History Graph

Daily Weather History Graph

Search for Another Location

Airport or City:

Trip Planner

Search our weather history database for the weather conditions in past years. The results will help you decide how hot, cold, wet, or windy it might be!

Date:

Astronomy

Oct. 29, 2012 Rise Set
Actual Time 7:33 AM PDT 5:46 PM PDT
Civil Twilight 7:02 AM PDT 6:17 PM PDT
Nautical Twilight 6:27 AM PDT 6:52 PM PDT
Astronomical Twilight 5:53 AM PDT 7:27 PM PDT
Moon 5:39 PM PDT (10/29) 7:30 AM PDT (10/29)
Length of Visible Light 11h 14m
Length of Day
10h 13m
Full, 100% of the Moon is Illuminated
Oct 29
Full
Oct 29
Full
Nov 6
Last Quarter
Nov 13
New
Nov 20
First Quarter

Hourly Weather History & Observations

Time (PDT) Temp. Dew Point Humidity Pressure Visibility Wind Dir Wind Speed Gust Speed Precip Events Conditions
12:00 AM 53.6 °F 51.8 °F 94% 29.85 in 1.8 mi Calm Calm - 0.00 in Rain Light Rain
12:04 AM 53.6 °F 51.8 °F 94% 29.85 in 3.0 mi Calm Calm - 0.00 in Rain Light Rain
12:22 AM 53.6 °F 51.8 °F 94% 29.85 in 2.5 mi South 5.8 mph - 0.02 in Rain Light Rain
12:30 AM 53.6 °F 53.6 °F 100% 29.85 in 4.0 mi SSE 6.9 mph - 0.02 in   Overcast
12:53 AM 54.0 °F 53.1 °F 97% 29.85 in 5.0 mi Calm Calm - 0.02 in   Mostly Cloudy
1:14 AM 53.6 °F 51.8 °F 94% 29.85 in 1.8 mi Calm Calm - 0.00 in Rain Light Rain
1:36 AM 53.6 °F 51.8 °F 94% 29.85 in 3.0 mi Calm Calm - 0.00 in Rain Light Rain
1:53 AM 53.1 °F 52.0 °F 96% 29.83 in 3.0 mi South 4.6 mph - 0.00 in Rain Light Rain
2:53 AM 52.0 °F 52.0 °F 100% 29.83 in 6.0 mi South 3.5 mph - 0.00 in   Overcast
3:41 AM 53.6 °F 51.8 °F 94% 29.85 in 8.0 mi NNW 8.1 mph - 0.00 in Rain Light Rain
3:53 AM 53.1 °F 52.0 °F 96% 29.85 in 2.0 mi NW 4.6 mph - 0.00 in   Overcast
4:01 AM 53.6 °F 51.8 °F 94% 29.85 in 3.0 mi Calm Calm - N/A   Overcast
4:40 AM 53.6 °F 51.8 °F 94% 29.86 in 1.8 mi East 3.5 mph - 0.01 in   Overcast
4:53 AM 53.1 °F 52.0 °F 96% 29.85 in 2.0 mi Calm Calm - 0.01 in   Mostly Cloudy
5:19 AM 51.8 °F 51.8 °F 100% 29.86 in 4.0 mi SE 4.6 mph - N/A   Overcast
5:53 AM 52.0 °F 51.1 °F 97% 29.86 in 3.0 mi SE 5.8 mph - N/A   Overcast
6:53 AM 52.0 °F 50.0 °F 93% 29.86 in 5.0 mi East 3.5 mph - 0.00 in   Scattered Clouds
7:22 AM 51.8 °F 50.0 °F 94% 29.87 in 1.8 mi Calm Calm - N/A   Mostly Cloudy
7:38 AM 51.8 °F 51.8 °F 100% 29.88 in 3.0 mi Calm Calm - N/A   Mostly Cloudy
7:50 AM 51.8 °F 50.0 °F 94% 29.88 in 1.8 mi ESE 3.5 mph - N/A   Mostly Cloudy
7:51 AM 51.1 °F 50.0 °F 96% 29.88 in 1.8 mi ESE 3.5 mph - N/A   Mostly Cloudy
8:00 AM 51.8 °F 50.0 °F 94% 29.89 in 2.5 mi Calm Calm - N/A   Scattered Clouds
8:07 AM 51.8 °F 50.0 °F 94% 29.89 in 3.0 mi SSE 3.5 mph - N/A   Scattered Clouds
8:53 AM 55.9 °F 54.0 °F 93% 29.91 in 10.0 mi WNW 3.5 mph - 0.00 in   Mostly Cloudy
9:53 AM 60.1 °F 55.9 °F 86% 29.91 in 10.0 mi SW 8.1 mph - 0.00 in   Clear
10:53 AM 63.0 °F 57.0 °F 81% 29.94 in 10.0 mi Variable 5.8 mph - N/A   Clear
11:53 AM 68.0 °F 54.0 °F 61% 29.96 in 10.0 mi West 17.3 mph - N/A   Clear
12:53 PM 68.0 °F 53.1 °F 59% 29.95 in 10.0 mi West 16.1 mph - N/A   Clear
1:53 PM 70.0 °F 51.1 °F 51% 29.96 in 10.0 mi West 16.1 mph 19.6 mph N/A   Clear
2:53 PM 71.1 °F 48.9 °F 45% 29.96 in 10.0 mi West 19.6 mph 27.6 mph N/A   Clear
3:53 PM 69.1 °F 46.9 °F 45% 29.99 in 10.0 mi West 13.8 mph 23.0 mph N/A   Clear
4:53 PM 66.9 °F 46.9 °F 49% 30.00 in 10.0 mi West 13.8 mph 25.3 mph N/A   Clear
5:53 PM 63.0 °F 46.9 °F 56% 30.02 in 10.0 mi WSW 3.5 mph - N/A   Clear
6:53 PM 59.0 °F 46.9 °F 64% 30.03 in 10.0 mi SSE 3.5 mph - N/A   Partly Cloudy
7:53 PM 57.0 °F 46.9 °F 69% 30.04 in 10.0 mi South 8.1 mph - N/A   Clear
8:53 PM 57.0 °F 48.0 °F 72% 30.03 in 10.0 mi South 6.9 mph - N/A   Clear
9:53 PM 55.0 °F 48.0 °F 77% 30.03 in 10.0 mi SSE 4.6 mph - N/A   Clear
10:53 PM 52.0 °F 46.9 °F 83% 30.02 in 10.0 mi Calm Calm - N/A   Clear
11:53 PM 51.1 °F 46.9 °F 86% 30.02 in 10.0 mi South 3.5 mph - N/A   Clear